Wetbulb
56.80 56.91 57.40 57.59 57.36 57.31 57.51 58.18 58.72 58.86 59.03 59.83 60.69 61.20 61.84 61.86 61.46 58.70 54.03 58.62 60.42 62.19 62.19 58.15 58.46 58.17 60.14 58.45 59.30 58.42 47.75 44.58 46.40 47.48 49.40 52.98 50.91 54.25 55.88 53.33 54.50 55.46 53.88 56.28 57.89
57.02 57.17 56.95 57.11 57.03 56.97 57.13 57.39 57.80 58.74 58.75 58.75 59.13 60.21 60.76 60.69 57.14 54.71 60.86 63.40 63.32 61.89 57.69 54.86 53.52 55.75 52.98 56.27 56.33 52.74 47.07 47.08 51.32 51.42 50.35 52.87 52.05 52.54 53.03 53.14 52.72 54.39 56.80 57.03 57.00
57.24 57.33 56.96 57.00 56.64 56.90 56.85 57.38 57.18 57.81 58.56 58.64 58.39 59.06 60.09 59.71 52.69 52.58 63.03 64.15 64.52 62.62 59.39 57.67 55.81 54.30 52.35 54.41 54.36 53.08 47.85 51.79 52.11 53.14 53.75 52.39 52.12 53.78 51.89 50.73 53.35 53.02 55.52 56.91 56.40
57.65 57.39 57.27 56.92 56.50 56.79 56.70 56.70 56.90 57.22 57.92 58.43 58.10 58.65 59.92 56.42 41.78 56.11 60.92 60.55 62.53 61.75 58.77 56.14 53.48 49.92 50.71 49.60 54.24 49.92 53.03 53.08 53.47 54.49 54.06 51.29 53.21 51.98 52.19 52.69 56.60 56.64 57.35 57.13 56.41
57.74 57.65 57.56 57.33 56.74 56.80 56.45 56.47 56.42 56.68 57.01 57.77 58.22 58.20 55.58 48.62 48.68 58.01 58.27 57.99 57.79 58.15 55.81 53.95 51.41 49.18 47.00 50.77 52.21 50.46 52.52 53.79 54.19 54.10 53.80 54.18 51.62 51.70 51.99 54.93 56.82 57.26 57.56 56.44 56.29
58.27 57.69 57.65 57.53 57.06 56.98 56.50 56.21 56.37 56.71 56.82 56.92 57.87 58.07 52.00 42.86 55.34 56.70 57.42 56.73 56.03 55.49 54.79 54.73 52.55 52.45 48.55 48.93 49.27 52.40 52.98 53.25 53.92 53.60 53.41 51.93 51.52 51.92 52.93 55.09 55.23 56.47 55.22 53.99 54.55
58.75 58.10 58.08 57.81 57.19 57.15 57.18 56.78 56.10 56.54 56.71 56.91 57.25 55.73 49.27 46.27 55.20 55.99 56.97 55.68 55.82 54.14 51.43 55.35 54.96 52.21 50.81 47.08 52.26 51.58 47.25 51.59 52.24 52.78 52.29 53.03 48.83 49.38 53.87 54.55 53.98 54.44 51.44 52.60 53.78
58.84 58.39 58.05 58.17 57.79 57.55 57.39 56.87 56.40 56.66 56.73 56.70 56.63 53.61 45.36 55.32 56.14 54.39 54.49 53.09 54.39 54.12 53.37 54.19 55.12 52.31 50.25 50.96 49.14 47.63 47.33 41.72 50.05 52.31 52.37 50.50 43.71 51.20 54.48 53.51 52.75 50.63 48.03 52.27 53.53
59.02 58.60 57.80 58.03 58.27 58.28 57.72 56.28 56.26 56.57 56.95 56.17 52.54 50.37 43.07 55.99 50.91 53.52 54.13 50.42 51.98 52.48 53.04 53.46 51.79 48.63 49.00 43.77 42.15 44.59 39.58 41.71 45.21 51.87 50.73 49.28 45.32 51.26 54.20 52.18 50.32 48.51 49.62 51.94 52.16
59.52 58.86 58.05 57.72 57.90 57.79 57.35 55.40 54.75 54.71 55.16 54.66 52.16 44.75 47.77 45.80 50.82 52.08 53.72 52.84 49.31 49.14 47.96 47.89 46.27 43.03 44.01 41.27 33.76 37.73 40.36 42.06 42.75 48.19 49.81 47.84 46.87 50.50 52.61 50.92 49.04 49.32 49.08 50.76 51.72
59.14 58.77 57.76 57.60 57.30 57.18 55.04 52.40 47.73 46.05 49.04 43.33 44.70 44.15 47.04 50.82 52.68 50.04 52.01 49.93 48.71 46.01 39.59 44.30 39.55 36.73 39.69 41.55 42.42 42.90 42.12 42.59 45.21 49.92 47.67 47.22 47.29 49.76 51.35 51.04 49.89 49.34 48.57 50.11 50.46
58.78 58.21 57.50 57.30 57.04 56.65 54.71 47.12 47.78 48.43 41.87 47.58 47.21 46.94 49.62 50.57 44.63 47.72 51.74 44.51 43.13 38.24 41.18 39.72 35.64 40.75 43.16 43.04 41.81 41.55 40.91 41.75 46.23 49.25 47.85 47.49 46.64 49.97 49.96 50.52 50.96 50.25 49.08 49.67 49.75
58.31 57.65 57.09 56.62 56.21 54.45 50.93 49.33 53.48 51.30 41.41 43.43 46.08 45.18 46.75 48.30 43.71 45.22 48.30 45.24 40.96 38.02 38.07 35.77 38.49 42.64 41.38 40.35 39.68 39.76 39.94 41.68 42.64 47.14 47.43 45.37 43.25 45.14 49.06 50.71 51.04 52.26 50.35 51.08 49.95
57.79 57.33 56.60 55.88 50.99 51.69 49.63 54.03 53.79 51.70 34.63 36.53 40.42 44.39 46.30 45.72 40.47 48.68 49.85 45.88 41.45 36.94 38.51 37.94 41.73 39.81 39.50 38.14 40.37 36.31 44.12 44.14 44.25 43.12 38.45 44.60 33.05 42.69 46.84 48.31 49.57 47.44 47.84 49.90 49.72
57.32 57.15 56.42 55.06 52.53 49.03 51.09 52.60 51.78 48.08 24.65 38.52 40.42 48.41 46.31 41.51 42.47 42.77 49.09 45.63 38.98 38.37 39.00 35.17 37.70 37.49 36.78 38.91 41.57 38.69 45.14 43.10 44.89 43.12 40.35 41.99 37.68 41.04 46.08 45.69 44.83 45.31 47.28 49.62 49.58
57.11 56.69 56.18 53.89 52.52 52.26 52.72 51.53 48.39 32.84 24.02 35.76 39.98 39.46 39.62 40.55 41.02 43.47 43.17 46.84 45.19 39.79 39.69 37.92 42.94 40.96 39.38 41.40 41.78 44.10 41.35 42.69 44.58 42.68 36.19 40.92 38.89 38.52 42.72 44.59 45.04 46.04 47.90 49.49 49.31
57.24 56.50 54.90 53.93 48.26 52.97 51.46 46.50 32.17 27.71 37.93 35.13 35.87 38.44 37.40 37.28 38.01 38.72 38.07 36.95 34.48 30.72 30.81 36.26 36.66 40.21 40.69 39.39 41.31 42.11 39.60 34.75 33.08 34.28 33.43 41.83 39.37 40.07 42.27 46.06 47.57 46.96 48.04 48.92 49.30
56.90 56.61 54.58 52.38 52.82 51.69 48.62 38.04 27.20 34.66 34.36 38.71 37.75 37.28 35.29 37.43 37.67 37.31 36.47 33.55 38.02 36.05 32.41 29.52 27.33 37.00 39.21 38.84 38.16 39.76 39.11 32.95 29.02 31.16 32.91 41.80 35.22 39.77 45.58 46.57 48.06 49.18 49.18 49.23 48.81
56.35 54.86 51.85 51.57 52.59 50.77 42.73 29.99 31.52 35.92 38.86 36.56 36.90 33.98 33.28 36.85 37.28 36.17 35.42 34.71 36.91 37.85 31.48 32.03 30.94 39.87 42.27 41.21 43.14 38.32 33.63 40.39 37.55 39.07 34.50 35.19 38.49 41.25 44.89 44.20 45.93 47.45 48.48 48.01 48.54
51.08 50.01 49.28 53.26 52.29 47.91 38.71 33.40 35.74 40.79 39.82 38.69 34.10 35.07 30.74 33.21 32.88 33.62 34.00 38.34 37.53 40.47 40.27 34.83 31.53 39.68 41.05 44.16 44.80 42.39 45.10 37.20 37.87 31.40 28.36 33.63 35.69 36.30 40.31 41.61 43.86 46.10 46.81 47.88 48.64
48.58 44.52 50.00 53.24 50.99 42.98 33.35 34.39 37.46 41.69 41.09 37.38 36.04 35.09 35.34 33.67 34.10 33.45 34.09 38.34 40.90 40.34 39.32 36.76 33.76 35.59 38.34 40.90 39.03 40.43 40.51 41.57 41.30 38.84 32.24 29.52 33.45 42.91 42.30 44.22 43.45 45.00 47.93 48.42 48.48
47.38 40.42 50.98 52.44 40.27 40.14 35.83 38.11 40.87 40.50 42.45 40.72 39.87 38.16 36.60 37.58 34.45 34.44 34.06 38.29 43.57 41.49 36.03 37.74 36.03 32.94 35.14 40.89 45.74 44.67 41.90 42.57 37.13 34.63 35.72 34.46 32.98 43.92 43.92 44.88 45.51 45.05 48.79 49.25 49.32
44.24 45.23 51.30 48.94 35.28 36.05 38.64 39.08 39.52 38.96 41.47 40.27 39.12 40.85 40.72 37.82 33.58 36.49 38.49 44.11 43.16 40.97 38.13 38.30 34.93 31.83 32.86 39.42 43.72 42.07 43.42 43.65 41.96 40.38 35.24 31.79 32.72 44.14 43.84 43.97 45.04 45.06 47.45 49.12 48.89
44.84 40.42 44.50 45.12 43.97 39.76 37.20 38.02 36.96 41.81 40.53 42.36 41.28 41.35 39.40 37.33 39.14 37.36 38.15 43.45 44.08 42.66 45.35 46.03 40.15 34.14 33.25 36.73 40.42 39.47 41.68 42.98 40.94 35.37 35.71 35.67 34.97 40.04 42.77 43.50 44.45 45.02 46.41 48.15 48.45
44.67 42.08 43.07 36.84 38.43 40.12 40.97 39.52 37.94 36.69 42.85 43.14 39.99 39.58 38.52 35.52 37.40 36.84 39.69 42.08 44.34 44.55 43.49 40.47 38.23 39.75 41.42 42.68 42.65 41.89 41.36 41.83 40.53 40.84 35.17 37.83 38.85 40.70 43.08 43.41 44.21 45.09 46.85 47.57 47.59
42.50 40.99 44.31 43.44 41.43 40.00 39.67 38.76 38.77 38.55 41.20 40.35 38.72 42.87 41.97 37.79 38.33 36.22 39.46 39.90 39.71 42.93 40.96 42.50 37.57 40.35 38.31 41.38 42.04 40.54 42.46 42.47 42.19 41.66 40.82 42.53 40.40 45.68 45.07 45.46 44.56 44.25 45.81 46.90 47.30
48.02 47.68 43.97 43.70 43.23 40.32 40.66 40.54 40.99 42.11 41.68 43.31 42.95 40.57 42.02 42.08 44.83 44.20 44.05 44.55 45.20 42.97 41.35 39.98 39.47 37.57 32.13 38.42 38.84 34.31 39.66 41.81 42.10 43.11 43.08 39.83 43.83 44.57 42.99 45.04 44.57 44.71 46.18 46.18 46.41
MSLP
1015.19 1015.17 1015.23 1015.31 1015.22 1015.08 1014.87 1014.84 1014.75 1014.61 1014.44 1014.38 1014.25 1014.26 1014.48 1014.71 1014.95 1015.11 1014.39 1013.25 1013.16 1013.40 1013.41 1013.01 1012.33 1011.93 1011.71 1011.46 1010.98 1010.58 1010.52 1009.74 1009.34 1008.77 1007.66 1006.78 1006.76 1006.66 1006.69 1006.86 1006.87 1006.41 1006.12 1006.47 1006.69
1015.08 1015.08 1015.08 1015.19 1015.09 1015.03 1014.86 1014.83 1014.81 1014.81 1014.63 1014.50 1014.35 1014.24 1014.43 1014.62 1014.65 1014.12 1013.42 1013.09 1013.17 1013.44 1013.45 1012.85 1012.19 1011.51 1011.60 1011.09 1010.99 1010.51 1010.07 1009.20 1008.70 1008.07 1007.43 1006.67 1006.68 1006.94 1007.06 1006.96 1006.68 1006.33 1005.81 1005.75 1006.25
1014.92 1014.88 1014.92 1014.99 1014.92 1014.86 1014.81 1014.77 1014.77 1014.78 1014.72 1014.51 1014.42 1014.37 1014.47 1014.36 1014.36 1012.68 1012.20 1012.36 1012.77 1013.36 1013.54 1013.10 1012.50 1011.96 1011.32 1010.87 1010.46 1010.14 1009.34 1009.11 1008.30 1007.72 1007.19 1006.94 1007.05 1007.05 1007.26 1007.07 1006.86 1006.61 1006.24 1006.10 1006.11
1014.66 1014.56 1014.58 1014.70 1014.80 1014.70 1014.68 1014.68 1014.67 1014.71 1014.70 1014.64 1014.51 1014.49 1014.38 1014.29 1013.73 1012.33 1012.28 1012.36 1012.43 1012.85 1013.29 1013.05 1012.66 1012.28 1011.60 1010.56 1010.19 1009.56 1009.09 1008.84 1008.23 1007.46 1007.14 1007.19 1007.42 1007.51 1007.43 1007.19 1006.67 1006.39 1006.25 1006.16 1006.31
1014.33 1014.31 1014.28 1014.31 1014.56 1014.65 1014.59 1014.62 1014.52 1014.69 1014.76 1014.72 1014.59 1014.57 1014.47 1013.84 1012.34 1012.37 1012.43 1012.33 1012.39 1012.63 1012.84 1012.76 1012.44 1012.19 1011.54 1010.46 1010.20 1009.23 1008.86 1008.42 1007.85 1007.53 1007.09 1007.05 1007.32 1007.61 1007.42 1006.99 1006.73 1006.43 1006.12 1006.02 1006.03
1013.99 1014.04 1014.11 1014.12 1014.34 1014.49 1014.52 1014.49 1014.55 1014.74 1014.68 1014.72 1014.62 1014.61 1014.31 1012.95 1011.55 1011.88 1012.17 1012.18 1012.14 1012.05 1012.49 1012.70 1012.21 1011.83 1011.41 1010.93 1010.26 1009.50 1009.15 1008.50 1007.79 1007.22 1007.06 1007.11 1007.05 1007.25 1006.83 1006.61 1006.41 1006.11 1005.78 1005.69 1005.86
1013.47 1013.67 1013.93 1013.97 1014.10 1014.19 1014.21 1014.21 1014.38 1014.62 1014.66 1014.62 1014.55 1014.48 1013.71 1012.10 1011.09 1011.31 1011.51 1011.87 1012.12 1012.14 1012.05 1012.27 1012.37 1012.26 1011.49 1011.40 1010.48 1009.74 1009.62 1008.57 1007.69 1007.02 1006.70 1006.91 1006.70 1006.45 1006.44 1006.36 1006.00 1006.01 1005.59 1005.77 1006.10
1012.88 1013.31 1013.54 1013.78 1013.74 1013.93 1013.94 1013.94 1014.13 1014.40 1014.65 1014.58 1014.49 1014.17 1012.77 1011.64 1011.67 1011.59 1011.75 1011.86 1011.94 1012.11 1012.22 1012.06 1012.13 1012.26 1012.15 1011.92 1011.43 1010.48 1009.77 1008.78 1006.96 1006.76 1006.48 1006.60 1005.86 1005.93 1005.63 1005.46 1005.57 1005.40 1005.59 1006.05 1006.50
1012.38 1012.71 1013.12 1013.42 1013.47 1013.59 1013.79 1013.89 1013.97 1014.07 1014.47 1014.45 1014.44 1013.89 1012.18 1010.93 1011.26 1011.17 1011.63 1011.77 1011.72 1011.80 1012.01 1012.30 1012.45 1012.61 1012.63 1012.59 1012.39 1010.65 1009.04 1007.92 1007.60 1006.70 1006.31 1005.94 1005.78 1005.49 1005.28 1004.94 1005.08 1005.19 1005.50 1005.97 1006.63
1011.87 1012.15 1012.63 1013.04 1013.29 1013.32 1013.62 1013.84 1013.85 1013.88 1014.07 1014.11 1013.77 1013.91 1011.78 1010.52 1010.65 1010.97 1011.26 1011.51 1011.73 1011.80 1012.08 1012.41 1012.65 1012.68 1012.49 1012.25 1010.48 1009.66 1009.32 1007.62 1007.00 1006.45 1006.01 1005.54 1005.11 1005.19 1004.68 1004.63 1004.85 1005.09 1005.15 1005.78 1006.71
1011.35 1011.58 1012.17 1012.76 1013.05 1013.19 1013.72 1014.01 1014.16 1014.06 1013.80 1012.93 1012.28 1011.19 1010.26 1010.02 1010.52 1010.58 1010.84 1011.32 1011.92 1012.16 1012.21 1012.28 1012.60 1011.10 1010.81 1010.95 1010.59 1010.21 1009.33 1008.28 1006.83 1006.13 1005.81 1004.97 1004.69 1004.53 1004.53 1004.46 1004.56 1004.67 1005.08 1005.66 1006.69
1010.93 1011.21 1011.81 1012.35 1012.75 1012.98 1013.36 1013.47 1013.07 1013.40 1012.95 1012.45 1011.92 1011.46 1010.35 1010.70 1010.41 1010.45 1010.64 1011.29 1011.66 1011.74 1012.26 1012.51 1011.15 1010.02 1011.47 1011.52 1011.38 1010.48 1009.67 1008.32 1007.01 1005.93 1005.59 1004.76 1004.11 1003.94 1003.93 1003.94 1003.91 1004.22 1004.78 1005.47 1006.80
1010.47 1010.87 1011.56 1011.99 1012.47 1012.87 1012.94 1012.84 1012.94 1013.22 1013.16 1011.55 1011.22 1010.71 1010.48 1010.64 1010.26 1009.86 1010.44 1010.66 1010.85 1011.31 1011.48 1011.43 1009.22 1011.47 1011.27 1011.12 1010.99 1010.11 1009.37 1008.55 1007.57 1006.12 1005.36 1004.72 1004.10 1003.61 1003.21 1003.09 1003.06 1003.44 1003.91 1005.08 1006.43
1010.01 1010.54 1011.22 1011.83 1012.67 1012.10 1012.32 1012.27 1012.70 1013.40 1012.88 1011.32 1010.84 1009.92 1010.12 1010.90 1010.56 1009.95 1009.64 1010.18 1010.45 1010.34 1011.27 1011.27 1010.59 1010.71 1010.67 1010.39 1010.39 1009.54 1008.85 1008.79 1007.86 1007.44 1005.80 1004.99 1004.19 1003.28 1002.40 1002.56 1002.77 1003.16 1003.96 1005.02 1006.25
1009.57 1010.09 1010.74 1011.06 1010.93 1011.69 1012.52 1012.77 1013.19 1013.74 1012.64 1010.52 1010.37 1010.21 1009.82 1010.47 1010.21 1009.86 1009.74 1010.09 1009.73 1009.97 1010.59 1009.89 1010.00 1010.09 1010.20 1010.01 1010.07 1008.79 1009.31 1008.72 1007.84 1006.85 1006.12 1005.02 1004.73 1002.38 1001.15 1001.76 1002.58 1003.16 1004.00 1004.81 1006.10
1008.98 1009.46 1010.29 1011.05 1011.22 1011.79 1012.32 1012.92 1013.33 1013.96 1011.26 1009.95 1010.24 1010.29 1010.34 1010.39 1010.23 1009.78 1009.42 1009.96 1009.59 1009.85 1009.89 1010.18 1010.13 1009.88 1009.30 1009.52 1010.01 1009.68 1009.70 1008.87 1007.65 1006.63 1005.74 1004.87 1003.67 1001.55 1000.66 1000.68 1001.87 1002.93 1003.66 1004.76 1006.20
1008.25 1008.84 1009.66 1009.91 1010.37 1011.50 1012.20 1012.94 1013.56 1012.17 1009.84 1009.88 1009.94 1010.00 1010.11 1010.00 1010.05 1009.92 1009.30 1009.18 1009.03 1009.67 1010.01 1010.49 1010.10 1009.91 1010.24 1009.66 1009.43 1009.30 1009.65 1008.17 1006.35 1005.32 1003.84 1003.22 1002.81 1001.00 999.85 999.95 1000.80 1002.10 1003.43 1004.88 1006.30
1007.52 1008.21 1008.90 1009.73 1010.21 1010.91 1011.78 1012.87 1012.07 1009.30 1009.22 1009.45 1009.61 1009.80 1009.62 1009.58 1009.45 1009.40 1008.94 1008.76 1009.10 1009.55 1009.81 1009.72 1009.32 1008.93 1009.27 1008.84 1007.85 1008.12 1008.59 1006.80 1005.57 1004.33 1002.67 1002.02 1001.55 1000.79 1000.04 1000.14 1000.75 1001.88 1003.28 1004.91 1006.38
1007.07 1007.55 1008.47 1009.66 1010.02 1010.62 1011.30 1011.47 1009.72 1008.70 1008.90 1009.09 1009.21 1008.96 1008.84 1008.76 1008.92 1008.75 1008.40 1008.15 1008.01 1008.80 1009.62 1009.31 1008.43 1007.59 1006.71 1007.42 1007.45 1007.41 1007.03 1005.76 1004.66 1002.26 1002.25 1001.78 1000.83 1000.74 1000.55 1000.88 1001.43 1002.30 1003.55 1005.01 1006.22
1006.75 1007.19 1007.92 1008.65 1009.83 1010.57 1010.73 1009.70 1008.81 1008.44 1008.62 1008.64 1008.08 1007.63 1007.07 1007.55 1008.04 1007.70 1007.19 1006.28 1006.82 1007.48 1008.63 1009.49 1008.60 1007.18 1006.97 1006.83 1006.79 1006.43 1006.13 1005.16 1003.71 1001.83 1001.54 1001.32 1000.83 1000.16 1000.69 1001.30 1001.72 1002.60 1003.70 1004.89 1006.09
1006.52 1007.06 1007.15 1008.10 1009.49 1010.10 1009.26 1008.67 1008.23 1008.12 1008.33 1008.19 1007.03 1005.72 1005.31 1005.61 1006.00 1005.74 1005.26 1004.95 1005.01 1005.98 1007.90 1009.08 1009.81 1007.50 1006.46 1005.20 1005.29 1005.80 1004.90 1003.44 1001.80 1000.83 999.93 1000.34 1000.31 999.16 1000.04 1000.78 1001.62 1002.40 1003.35 1004.49 1005.76
1005.92 1006.59 1006.95 1007.77 1008.72 1008.68 1008.28 1007.94 1008.19 1007.53 1007.45 1007.07 1006.35 1004.88 1003.73 1003.92 1004.31 1004.44 1004.16 1004.10 1003.73 1005.24 1007.26 1008.48 1008.63 1006.71 1005.56 1004.24 1004.02 1004.28 1003.04 1001.61 1000.62 1000.23 999.78 999.47 1000.75 999.72 999.92 1000.57 1001.32 1002.07 1002.91 1004.14 1005.47
1005.27 1006.06 1006.81 1006.97 1007.43 1007.55 1007.59 1007.40 1007.51 1007.18 1006.34 1005.95 1004.56 1002.95 1002.32 1002.39 1003.01 1003.06 1003.14 1002.68 1003.64 1005.07 1005.49 1007.26 1007.15 1005.98 1005.10 1004.61 1003.63 1002.98 1001.98 1000.98 1000.40 1000.33 1000.02 999.68 1000.68 1000.22 1000.51 1000.99 1001.31 1001.97 1002.87 1004.07 1005.32
1004.78 1005.36 1006.38 1006.82 1006.37 1006.52 1006.66 1006.52 1006.50 1006.11 1005.65 1004.98 1003.21 1002.11 1001.91 1001.64 1001.78 1002.20 1002.04 1002.20 1002.66 1003.47 1004.34 1005.06 1004.79 1004.53 1002.78 1001.34 1001.29 1001.97 1001.39 1000.85 1000.78 1000.43 1000.02 999.90 1000.47 1000.64 1000.97 1001.25 1001.74 1002.26 1003.04 1004.05 1005.21
1004.03 1004.03 1004.46 1005.33 1005.71 1005.60 1005.67 1005.49 1005.17 1005.20 1004.42 1003.82 1002.47 1001.37 1001.40 1001.29 1001.15 1001.28 1001.95 1001.42 1001.73 1002.57 1004.20 1005.39 1003.02 1002.42 1001.02 1000.10 1000.39 1000.49 1000.64 1000.64 1000.39 1000.42 1000.36 999.97 999.93 1000.28 1000.69 1001.12 1001.77 1002.42 1003.17 1004.20 1005.23
1003.27 1003.50 1003.73 1003.54 1003.95 1004.67 1004.75 1004.21 1004.22 1004.37 1004.06 1002.87 1002.28 1000.85 1000.72 1000.67 1000.40 1000.58 1000.87 1001.41 1001.58 1002.22 1003.15 1003.60 1002.45 1000.92 1000.34 1000.00 1000.02 1000.35 1000.42 1000.31 1000.07 1000.28 1000.16 999.89 999.87 999.56 999.89 1000.67 1001.80 1002.73 1003.45 1004.29 1005.08
1002.88 1002.84 1002.82 1002.24 1002.68 1003.20 1002.75 1002.83 1002.85 1003.32 1003.31 1002.58 1002.05 1001.49 1000.21 999.58 999.70 999.60 999.91 1000.68 1000.76 1001.37 1002.18 1002.88 1002.50 1001.20 1000.80 1000.04 999.87 999.92 999.40 999.64 999.95 1000.01 999.96 999.97 999.87 1000.08 1000.56 1001.33 1001.90 1002.70 1003.62 1004.50 1005.45
Wind_Speed
7 7 8 9 9 9 7 8 8 7 3 3 5 2 4 3 4 9 11 8 6 7 10 10 11 10 12 13 13 5 6 11 14 15 15 6 4 5 3 4 7 8 6 8 9
8 8 8 8 8 8 7 7 7 7 6 4 2 0 0 1 8 14 14 14 10 4 7 9 11 10 12 13 9 12 9 14 11 13 12 7 5 4 5 7 8 6 9 5 6
9 8 8 8 8 7 7 7 6 6 7 5 2 1 1 3 6 8 19 23 20 8 11 12 13 11 11 16 17 17 17 12 16 16 13 6 8 5 8 7 8 8 9 7 4
11 9 8 8 8 7 7 6 6 7 6 5 2 2 3 6 8 5 8 5 9 12 13 13 11 11 8 16 18 19 20 18 17 17 4 5 6 12 11 8 8 9 8 8 8
12 11 9 8 8 8 6 6 6 7 7 6 5 2 4 8 14 8 4 4 9 11 15 15 14 12 13 9 15 21 17 20 16 16 16 7 9 13 13 9 12 11 11 11 8
13 12 10 8 7 8 7 6 6 8 7 7 5 4 6 14 9 14 8 6 5 3 13 14 12 12 15 16 16 9 19 18 19 18 13 15 11 10 11 10 12 13 9 7 4
13 12 10 10 9 9 8 6 6 8 8 7 6 7 11 14 3 7 14 14 10 10 7 15 15 14 7 15 13 15 16 15 22 19 14 14 19 17 13 13 14 14 9 4 5
13 12 10 11 10 10 9 5 4 6 8 6 7 9 8 10 15 10 7 7 11 11 11 11 6 11 14 7 11 9 11 13 18 13 18 10 16 12 15 18 16 9 2 7 5
14 12 11 12 10 9 8 5 5 7 8 5 6 9 8 3 15 13 13 12 10 9 7 11 9 6 11 7 6 10 12 22 15 18 15 17 18 12 19 13 7 6 8 9 8
13 12 11 10 8 7 7 1 3 5 3 6 8 3 8 11 9 14 15 16 12 8 8 9 6 7 8 11 18 12 16 14 18 17 18 21 15 13 14 9 10 8 8 9 10
11 11 9 9 7 7 6 1 1 2 6 10 8 10 2 8 0 7 12 11 12 12 12 11 10 19 23 22 18 15 17 16 17 17 21 20 20 15 13 11 10 8 6 10 11
10 10 9 8 7 5 7 4 3 4 7 17 17 19 18 6 8 11 11 13 15 17 14 11 22 25 14 17 18 21 18 17 15 20 20 19 17 16 11 15 14 9 9 11 12
10 11 9 7 4 4 9 10 2 6 7 6 20 16 14 11 14 12 16 17 15 17 17 19 20 16 18 19 20 22 23 16 15 14 9 7 12 10 12 15 9 11 10 15 16
12 12 11 12 3 7 11 4 5 6 6 6 7 6 13 6 7 14 13 17 12 19 17 16 18 20 20 23 20 23 23 21 19 18 12 11 5 16 22 16 10 8 6 16 14
13 14 15 16 6 5 5 8 8 3 7 8 6 4 5 11 4 10 17 15 18 15 10 11 11 18 22 21 20 20 17 23 27 11 3 6 6 10 10 19 10 9 10 15 14
16 16 16 9 2 7 11 9 3 2 9 5 5 7 7 9 6 7 19 19 13 16 13 14 9 13 17 21 20 21 15 20 18 11 9 14 10 7 7 14 13 9 10 14 14
17 18 16 8 5 14 12 3 2 7 2 5 4 6 13 9 10 6 16 20 11 6 13 7 19 8 4 12 20 22 14 8 8 7 5 16 8 7 4 8 15 15 14 15 13
14 17 13 3 13 16 6 3 8 7 6 3 3 8 8 7 7 12 7 17 18 10 2 10 8 15 15 11 15 25 23 4 6 6 7 14 7 5 8 8 11 13 15 14 13
13 5 8 8 13 8 5 5 6 3 4 6 5 7 6 7 7 13 14 12 14 19 8 3 10 5 10 15 16 11 10 16 7 10 7 4 4 5 8 6 10 13 16 15 14
4 4 5 16 13 8 4 8 7 4 5 5 9 13 10 10 9 12 13 10 19 18 15 3 7 6 12 8 9 7 8 11 4 7 8 6 9 5 10 9 7 14 16 14 13
4 4 8 17 7 4 6 7 7 10 8 7 9 11 13 11 14 13 9 12 13 12 13 5 3 1 1 9 13 9 7 10 5 5 6 6 1 11 10 13 11 11 16 16 14
4 3 10 12 6 3 5 5 3 6 16 12 11 16 11 11 14 11 12 6 15 15 10 9 5 5 6 4 12 9 8 11 3 2 1 5 2 6 10 8 10 9 16 15 13
6 3 7 7 6 6 6 6 8 4 6 9 10 14 7 7 8 14 13 7 20 14 13 14 6 2 5 8 1 4 7 5 5 3 3 4 3 7 8 8 5 9 12 14 13
4 5 3 3 2 6 10 7 7 14 18 15 13 16 9 10 11 6 9 7 14 15 13 7 6 6 6 6 12 7 7 6 5 1 2 2 6 6 7 9 7 8 10 13 13
3 4 6 6 8 11 5 5 8 6 12 15 8 17 10 8 9 7 12 6 8 9 11 5 5 14 11 18 17 14 9 8 9 7 1 3 7 9 10 10 9 8 9 13 12
5 3 4 3 8 16 15 9 13 7 5 9 14 9 15 9 8 12 12 11 9 8 15 12 7 13 10 6 12 14 13 12 10 7 7 9 6 8 8 9 9 9 9 11 12
2 2 1 4 9 8 7 10 11 12 12 18 13 15 12 12 7 13 10 12 7 10 11 6 4 5 4 4 5 4 9 14 10 8 8 10 8 5 6 7 9 10 10 9 9
Wind_Direction
284 293 297 301 302 308 320 328 331 335 14 30 5 344 267 278 240 228 250 249 15 9 339 293 278 262 255 245 259 262 243 236 233 247 264 237 162 254 137 268 273 278 289 133 141
271 280 289 296 302 306 310 315 324 323 317 321 333 5 308 141 257 249 245 260 277 298 282 275 266 236 230 220 229 230 223 238 239 248 267 277 179 238 306 281 284 285 257 149 167
260 267 281 289 296 302 311 312 311 315 317 305 313 319 95 163 289 249 232 237 244 231 266 275 286 288 270 226 214 223 234 251 239 252 269 270 314 304 277 268 271 270 321 334 34
255 261 267 281 289 296 306 315 313 312 318 302 280 259 180 198 243 69 51 32 251 238 242 260 249 250 253 241 229 229 231 231 260 274 250 241 285 280 273 276 288 301 304 292 290
256 259 263 263 274 284 289 295 303 304 304 302 279 228 183 212 239 138 133 208 203 207 224 233 240 242 241 245 239 242 244 247 237 252 268 224 232 264 270 275 283 282 265 253 244
256 258 259 260 256 265 266 281 288 293 294 292 284 230 250 238 244 239 191 231 288 267 203 244 250 245 270 248 258 264 244 262 266 250 234 263 251 244 249 245 258 267 268 277 272
249 255 255 250 248 252 257 251 279 288 283 281 277 219 242 231 261 270 202 246 261 274 279 204 247 280 272 262 299 257 267 247 244 244 245 226 246 241 256 250 252 260 258 83 66
239 250 250 256 245 254 253 250 270 289 282 277 256 233 249 245 250 252 274 251 258 254 259 282 286 251 274 335 312 280 232 250 238 249 237 226 257 250 250 240 235 230 173 127 111
233 236 244 251 253 239 226 239 272 293 298 242 231 230 261 178 227 228 218 222 222 230 228 239 260 258 262 246 271 240 234 224 243 235 229 222 246 243 257 268 212 247 208 155 130
231 229 227 245 258 234 200 146 305 311 273 232 268 283 247 235 223 219 228 223 240 249 237 218 221 225 213 205 220 222 226 238 219 226 238 234 233 234 276 218 213 232 234 144 142
231 216 209 230 230 229 140 246 256 208 195 199 196 218 107 263 47 193 210 204 222 237 228 206 211 219 211 213 229 250 251 239 239 210 234 233 226 223 230 249 256 217 243 149 119
217 195 197 213 226 209 195 204 237 100 274 218 250 228 249 333 233 214 195 196 201 216 214 219 227 226 226 236 239 240 251 268 243 247 220 237 226 228 224 245 225 216 204 141 120
198 184 182 190 187 197 213 223 94 77 265 194 219 227 229 216 233 216 198 200 201 212 208 216 236 232 238 234 236 239 238 244 255 230 269 239 247 243 232 232 207 223 187 140 142
190 177 167 135 150 215 215 235 156 104 268 202 212 238 218 144 250 243 208 203 223 223 215 235 239 239 228 233 230 234 238 233 250 254 197 201 254 216 229 224 224 189 204 142 141
188 177 167 176 121 176 113 108 103 102 281 117 162 159 202 186 84 217 212 230 224 214 193 219 214 223 230 235 239 239 243 220 240 237 169 247 221 248 243 208 189 193 196 145 141
185 179 171 196 265 109 125 121 88 126 252 161 129 183 180 197 205 292 188 209 222 238 224 247 261 230 224 229 234 250 257 275 241 210 222 201 205 247 200 172 175 183 150 139 138
186 179 177 164 188 135 133 100 121 231 79 182 181 187 214 201 212 194 199 205 204 191 229 228 243 239 321 252 223 228 210 226 218 192 222 190 181 252 54 120 172 165 143 140 138
187 184 179 157 128 139 149 104 228 237 203 117 191 202 220 202 208 198 215 205 214 218 339 223 240 194 189 234 212 206 209 209 165 195 153 163 204 216 146 111 118 137 139 141 147
163 154 148 169 150 149 154 199 228 234 177 181 176 212 213 201 244 197 217 214 209 203 213 262 232 205 201 210 185 180 218 239 264 189 125 187 125 49 111 92 133 141 145 155 156
133 134 166 145 155 149 189 219 231 224 154 205 216 198 202 186 192 198 200 200 223 207 189 182 279 193 195 206 199 208 203 204 233 164 164 181 184 178 161 154 157 152 159 158 156
114 147 158 146 145 180 217 221 254 224 179 212 235 244 246 166 202 194 217 240 192 184 142 170 211 289 256 187 168 184 213 234 109 231 145 129 190 153 160 158 171 165 162 162 162
146 163 150 150 171 182 220 200 206 233 205 233 256 278 230 192 199 193 243 225 165 148 173 175 272 274 245 281 177 175 229 234 235 36 303 115 139 76 101 122 153 177 164 159 156
142 116 165 153 191 198 226 231 206 269 227 200 249 236 241 240 188 204 230 216 141 158 165 160 217 196 342 151 41 212 227 281 353 314 216 69 176 110 107 110 142 150 146 152 146
149 155 137 206 269 216 211 224 219 219 239 226 261 251 235 240 190 185 227 182 167 175 183 188 181 210 257 107 130 175 208 242 203 342 358 60 129 139 136 132 129 138 142 146 151
173 187 162 176 218 231 192 232 209 233 214 200 247 252 220 217 214 213 227 208 182 183 173 231 250 212 243 131 155 168 184 242 207 223 39 237 137 170 166 158 161 153 134 144 160
141 188 156 179 199 211 224 229 237 203 261 215 235 256 235 210 209 195 181 226 176 184 201 219 298 313 87 74 154 172 187 204 218 211 242 272 303 156 168 132 133 159 159 167 169
153 284 43 166 186 196 211 216 218 210 231 252 241 235 277 210 259 215 179 205 179 170 185 183 251 313 52 83 81 350 205 196 209 217 212 222 238 102 96 133 151 161 165 158 156